Regional Weather Roundup
Issued by NWS Charleston, SC

Current Version | Previous Version | Text Only | Print | Product List | Glossary Off
Versions: 1 2 3 4 5 6 7 8 9 10 11 12 13 14 15 16 17 18 19 20 21 22 23 24 25 26 27 28 29 30 31 32 33 34 35 36 37 38 39 40 41 42 43 44 45 46 47 48 49 50

000
ASUS42 KCHS 221410
RWRCHS

REGIONAL WEATHER ROUNDUP
NATIONAL WEATHER SERVICE CHARLESTON SC
1000 AM EDT FRI AUG 22 2014

NOTE: "FAIR" INDICATES FEW OR NO CLOUDS BELOW 12,000 FEET WITH NO
SIGNIFICANT WEATHER AND/OR OBSTRUCTIONS TO VISIBILITY.

NOT ALL STATIONS ARE QUALITY CONTROLLED BY THE NATIONAL
WEATHER SERVICE. USE DATA WITH CAUTION...ESPECIALLY
DEWPOINT OBSERVATIONS.

SCZ027-030-031-034>040-042>050-221500-
...SOUTH CAROLINA...

CITY           SKY/WX    TMP DP  RH WIND       PRES   REMARKS
N CHARLESTON   MOSUNNY   90  73  57 CALM      30.04S HX  98
WATERFRONT PRK   N/A     88 N/A N/A W3          N/A
FORT JOHNSON   NOT AVBL
MOUNT PLEASANT FAIR      90  79  70 CALM      30.05R HX 105
JOHNS ISLAND   SUNNY     90  81  74 CALM      30.05S HX 108
PINOPOLIS        N/A     90  73  58 SW2       29.97S HX  98
MONCKS CORNER  NOT AVBL
SUMMERVILLE    FAIR      86  75  70 CALM      30.05S HX  95
BEAUFORT MCAS  MOSUNNY   89  73  59 N5        30.05R HX  97
BEAUFORT ARPT  FAIR      88  77  70 CALM      30.05R HX 100
HILTON HEAD IS SUNNY     90  79  70 NW6       30.06R HX 105
GEORGETOWN     NOT AVBL
WALTERBORO     SUNNY     88  66  48 NW3       30.06S HX  90
ORANGEBURG     SUNNY     85  71  63 NW5       30.06R HX  90
BARNWELL       FAIR      88  72  58 W5        30.07S HX  94
AIKEN          FAIR      88  73  62 CALM      30.11R HX  96
MANNING        FAIR      88  73  62 W3        30.05R HX  96
KINGSTREE      NOT AVBL
COLUMBIA       PTSUNNY   87  70  56 W6        30.05R HX  92
SUMTER         MOSUNNY   87  73  63 W3        30.03S HX  93
FLORENCE       MOSUNNY   87  70  56 W3        30.04S HX  92
MYRTLE BEACH   NOT AVBL
N MYRTLE BEACH PTSUNNY   84  74  71 W5        30.03S HX  91

$$

GAZ063-065-086>088-099>101-113>116-118-119-134-136>141-150-221500-
...GEORGIA...

CITY           SKY/WX    TMP DP  RH WIND       PRES   REMARKS
SAVANNAH ARPT  MOSUNNY   89  72  56 NW6       30.06R HX  96
HUNTER AAF     SUNNY     89  74  60 NW8       30.04R HX  97
FORT STEWART   SUNNY     87  73  62 CALM      30.05R HX  94
STATESBORO     NOT AVBL
SYLVANIA       SUNNY     87  76  70 N5        30.08R HX  98
CLAXTON        FAIR      88  77  70 W3        30.07R HX 100
THOMSON        SUNNY     87  78  76 W7        30.13R HX 100
AUGUSTA-BUSH   SUNNY     87  72  60 CALM      30.06S HX  93
AUGUSTA-DANIEL SUNNY     89  71  55 NW9       30.08S HX  95
SWAINSBORO     FAIR      90  77  66 NW6       30.10R HX 102
VIDALIA          N/A     88  73  62 N7        30.09R HX  96
ALMA           SUNNY     85  73  67 CALM      30.08R HX  91
WAYCROSS       SUNNY     88  76  69 NW3       30.08R HX  98
JESUP            N/A     88  77  70 CALM      30.07S HX 100
BRUNSWICK      SUNNY     86  72  62 CALM      30.07R HX  92
SAINT SIMONS   SUNNY     85  74  69 NW5       30.05F HX  92

$$

SCZ027-028-034-036>038-045-046-048>050-GAZ119-141-221500-
...LAKE AND SUPPLEMENTAL COASTAL OBSERVATIONS...

STATION/POSITION TIME  TEMP    WIND        PRES    WAVE   SWELL
                       AIR SEA DIR/SP/G            HT/PER HT/PER/DIR
                 (UTC) (F)     (DEG/KT/KT) (MB)    (FT/S) (FT/S/D)
UPR LAKE MARION  NOT AVBL
WINYAH BAY       1300   82     280/  4     1017.0S
LAKE MURRAY      1300   81     280/  4/  7 1017.3R
ACE BASIN NERRS  1300   82        CALM     1017.0S
FORT PULASKI     1400   85     290/  6/  7 1017.8S
SAPELO ISLAND    1300   81     270/  3     1018.0S

$$

ANZ835-935-AMZ111-154-330-350-352-354-374-450-454-472-221500-
...C-MAN AND BUOY OBSERVATIONS...

STATION/POSITION TIME  TEMP    WIND        PRES    WAVE   SWELL
                       AIR SEA DIR/SP/G            HT/PER HT/PER/DIR
                 (UTC) (F)     (DEG/KT/KT) (MB)    (FT/S) (FT/S/D)
FOLLY BEACH CMAN 1300   84     260/  4/  4 1017.7R
BUOY 41004       1400   84 84  270/  6/  8 1016.9R   2/ 7   2/ 7
BUOY 41008       1400   84 85  290/  4/  6 1017.7R   1/ 3
5E ST. MARYS GA  1400      83                N/A     1/11
FRYING PAN BUOY  NOT AVBL
BUOY 41025       1400   80     300/  8/  8 1015.3R   2/ 9   2/ 40/ 9
CAPE LOOKOUT NC  1300   82     280/  8/  9 1015.9R
BUOY 41002       1258   82 82  260/ 14/ 16 1018.2R   2/ 4   2/110/ 8
BUOY 41010       1400   84 86  220/  4/  6 1019.2R   2/ 6   2/140/ 6
BUOY 41012       NOT AVBL
ST AUGUSTINE FL  1400   84     280/  4/  5 1019.3S
CAPERS NEARSHORE 1300   86     290/  6/  6   N/A
FRIPP NEARSHORE  NOT AVBL


$$



USA.gov is the U.S. government's official web portal to all federal, state and local government web resources and services.